カタログに戻る

FENGYUN 1C DEB

運用中SSO
NORAD 31150·DEBRIS·🇨🇳 China

打ち上げ May 10, 1999 から Taiyuan Satellite Launch Center

Loading…

次のパス (今後24時間)

TLE

最新Source: Space-Track

元期: Sep 14, 2026, 11:40 UTC

1 31150U 99025BHC 26257.48640616  .00000131  00000-0  93396-4 0  9991
2 31150  98.6859 262.8610 0016068  96.8924  56.9153 14.12876678  1876

AllMySatでFENGYUN 1C DEBをリアルタイム追跡

Download on the App Store